This demonstration page uses our WeatherBlox Daily Observations layout. Learn more.

Left ArrowRight Arrow

41.12389, -100.76542

Hourly Observations for July 15, 2018

Temp ( °F °C ) Dew Point ( °F °C ) Humidity (%) Winds ( mph kmh ) Pressure ( in mb ) Visibility ( mi km ) Precip ( " mm )
12:53 am 00:53 Clear 69 20.6 68 20 96 96 ESE 6 9 30.00 1016 10 16 0.00 0.00
1:53 am 01:53 Clear 67 19.4 67 19.4 100 100 ESE 5 7 29.99 1016 10 16 0.00 0.00
2:53 am 02:53 Clear with Mist and Fog 66 18.9 66 18.9 100 100 SE 6 9 29.98 1015 6 10 0.00 0.00
3:53 am 03:53 Clear with Mist and Fog 66 18.9 66 18.9 100 100 ESE 5 7 29.98 1015 5 8 0.00 0.00
4:39 am 04:39 Clear with Mist and Fog 64 17.8 64 17.8 100 100 SSE 5 7 29.97 1015 2 2 0.00 0.00
4:46 am 04:46 Clear with Mist and Fog 64 17.8 64 17.8 100 100 SE 5 7 29.97 1015 1 2 0.00 0.00
4:53 am 04:53 Clear with Mist and Fog 64 17.8 64 17.8 100 100 ESE 3 6 29.98 1015 2 3 0.00 0.00
5:11 am 05:11 Clear with Mist and Fog 64 17.8 64 17.8 100 100 E 3 6 29.97 1015 3 5 0.00 0.00
5:26 am 05:26 Clear with Mist and Fog 65 18.3 65 18.3 100 100 ESE 3 6 29.97 1015 3 4 0.00 0.00
5:46 am 05:46 Clear with Mist and Fog 65 18.3 65 18.3 100 100 Calm 30.00 1016 1 2 0.00 0.00
5:49 am 05:49 Mostly Cloudy with Mist and Fog 63 17 63 17 100 100 Calm 30.03 1017 1 1 0.00 0.00
5:53 am 05:53 Mostly Cloudy with Fog 62 16.7 62 16.7 100 100 Calm 30.00 1016 1 1 0.00 0.00
6:10 am 06:10 Mostly Clear with Mist and Fog 62 16.7 62 16.7 100 100 Calm 30.03 1017 2 2 0.00 0.00
6:14 am 06:14 Mostly Cloudy with Mist and Fog 62 16.7 62 16.7 100 100 Calm 30.03 1017 1 2 0.00 0.00
6:22 am 06:22 Mostly Cloudy with Fog 63 17.2 63 17.2 100 100 Calm 30.03 1017 1 1 0.00 0.00
6:30 am 06:30 Partly Cloudy with Mist and Fog 64 17.8 64 17.8 100 100 Calm 30.00 1016 2 2 0.00 0.00
6:49 am 06:49 Mostly Cloudy with Mist and Fog 64 18 64 18 100 100 W 5 7 30.00 1016 1 2 0.00 0.00
6:53 am 06:53 Mostly Cloudy with Fog 63 17.2 63 17.2 100 100 WNW 3 6 30.01 1016 1 1 0.00 0.00
7:02 am 07:02 Partly Cloudy with Mist and Fog 64 17.8 64 17.8 100 100 WNW 5 7 30.00 1016 2 3 0.00 0.00
7:09 am 07:09 Partly Cloudy with Mist and Fog 65 18.3 65 18.3 100 100 Calm 30.00 1016 5 8 0.00 0.00
7:53 am 07:53 Sunny with Mist and Fog 69 20.6 69 20.6 100 100 Calm 30.04 1017 5 8 0.00 0.00
8:53 am 08:53 Mostly Cloudy 74 23.3 71 21.7 91 91 NNW 6 9 30.04 1017 8 13 0.00 0.00
9:10 am 09:10 Mostly Cloudy 75 23.9 72 22.2 90 90 NNE 8 13 29.97 1015 8 13 0.00 0.00
9:53 am 09:53 Cloudy 75 23.9 72 22.2 90 90 NE 10 17 30.06 1018 10 16 0.00 0.00
10:53 am 10:53 Mostly Cloudy 77 25 69 20.6 77 77 NE 17 28 30.07 1018 10 16 0.00 0.00
11:18 am 11:18 Mostly Cloudy 77 25 68 20 74 74 NNE 17 28 30.00 1016 10 16 0.00 0.00
11:53 am 11:53 Cloudy 77 25 68 20 74 74 NNE 18 30 30.08 1019 10 16 0.00 0.00
12:53 pm 12:53 Sunny 81 27.2 67 19.4 62 62 NE 15 24 30.08 1019 10 16 0.00 0.00
1:53 pm 13:53 Mostly Sunny 82 27.8 68 20 63 63 NE 12 19 30.07 1018 10 16 0.00 0.00
2:53 pm 14:53 Mostly Sunny 85 29.4 69 20.6 59 59 NE 14 22 30.05 1018 10 16 0.00 0.00
3:53 pm 15:53 Partly Cloudy 84 28.9 69 20.6 61 61 NE 13 20 30.05 1018 10 16 0.00 0.00
4:53 pm 16:53 Partly Cloudy 84 28.9 68 20 59 59 NNE 17 28 30.05 1018 10 16 0.00 0.00
5:53 pm 17:53 Partly Cloudy 81 27.2 68 20 65 65 NE 12 19 30.05 1018 10 16 0.00 0.00
6:53 pm 18:53 Sunny 81 27.2 69 20.6 67 67 ENE 10 17 30.03 1017 10 16 0.00 0.00
7:53 pm 19:53 Sunny 78 25.6 68 20 71 71 ENE 12 19 30.04 1017 10 16 0.00 0.00
8:53 pm 20:53 Partly Cloudy 74 23.3 68 20 82 82 NE 13 20 30.06 1018 10 16 0.00 0.00
9:53 pm 21:53 Clear 72 22.2 67 19.4 84 84 ENE 6 9 30.08 1019 10 16 0.00 0.00
10:40 pm 22:40 Mostly Cloudy 71 21.7 67 19.4 87 87 ESE 3 6 30.03 1017 10 16 0.00 0.00
10:53 pm 22:53 Cloudy 71 21.7 67 19.4 87 87 Calm 30.10 1019 10 16 0.00 0.00
11:40 pm 23:40 Partly Cloudy 69 20.6 66 18.9 90 90 E 5 7 30.06 1018 10 16 0.00 0.00
11:53 pm 23:53 Clear 67 19.4 66 18.9 97 97 ESE 3 6 30.09 1019 10 16 0.00 0.00

Powered by AerisWeather